Time,TemperatureF,DewpointF,PressureIn,WindDirection,WindDirectionDegrees,WindSpeedMPH,WindSpeedGustMPH,Humidity,HourlyPrecipIn,Conditions,Clouds,dailyrainin,SoftwareType,DateUTC
2013-07-11 00:53:00,55.0,-99.9,29.97,North,360,7.0,-999.0,-999,-99.99,,,-99.99,,2013-07-11 07:53:00,
2013-07-11 01:53:00,55.0,-99.9,29.96,NW,310,9.0,-999.0,-999,-99.99,,,-99.99,,2013-07-11 08:53:00,
2013-07-11 02:53:00,54.0,-99.9,29.95,NW,320,7.0,-999.0,-999,-99.99,,,-99.99,,2013-07-11 09:53:00,
2013-07-11 03:52:00,55.0,-99.9,29.95,NNW,330,7.0,-999.0,-999,-99.99,,,-99.99,,2013-07-11 10:52:00,
2013-07-11 04:53:00,54.0,-99.9,29.95,NNW,330,7.0,-999.0,-999,-99.99,,,-99.99,,2013-07-11 11:53:00,
2013-07-11 05:57:00,54.0,-99.9,29.95,NNW,330,7.0,-999.0,-999,-99.99,,,-99.99,,2013-07-11 12:57:00,
2013-07-11 07:59:00,54.0,-99.9,29.97,NNW,340,9.0,-999.0,-999,-99.99,,,-99.99,,2013-07-11 14:59:00,
2013-07-11 09:56:00,54.0,-99.9,29.97,NNW,340,11.0,-999.0,-999,-99.99,,,-99.99,,2013-07-11 16:56:00,
2013-07-11 10:57:00,54.0,-99.9,29.98,NNW,340,7.0,-999.0,-999,-99.99,,,-99.99,,2013-07-11 17:57:00,
2013-07-11 11:57:00,54.0,-99.9,29.98,NW,320,11.0,-999.0,-999,-99.99,,,-99.99,,2013-07-11 18:57:00,
2013-07-11 11:59:00,55.0,-99.9,29.98,NNW,330,11.0,-999.0,-999,-99.99,,,-99.99,,2013-07-11 18:59:00,
2013-07-11 13:56:00,56.0,-99.9,29.99,NW,310,11.0,-999.0,-999,-99.99,,,-99.99,,2013-07-11 20:56:00,
2013-07-11 13:59:00,56.0,-99.9,29.98,WNW,300,11.0,-999.0,-999,-99.99,,,-99.99,,2013-07-11 20:59:00,
2013-07-11 15:55:00,55.0,-99.9,29.98,NW,310,13.0,-999.0,-999,-99.99,,,-99.99,,2013-07-11 22:55:00,
2013-07-11 15:59:00,56.0,-99.9,29.96,NW,310,13.0,-999.0,-999,-99.99,,,-99.99,,2013-07-11 22:59:00,
2013-07-11 18:57:00,56.0,-99.9,29.95,WNW,300,13.0,-999.0,-999,-99.99,,,-99.99,,2013-07-12 01:57:00,
2013-07-11 19:56:00,55.0,-99.9,29.95,WNW,300,13.0,-999.0,-999,-99.99,,,-99.99,,2013-07-12 02:56:00,
2013-07-11 20:58:00,55.0,-99.9,29.94,NNW,330,11.0,-999.0,-999,-99.99,,,-99.99,,2013-07-12 03:58:00,
2013-07-11 21:53:00,55.0,-99.9,29.95,NW,310,9.0,-999.0,-999,-99.99,,,-99.99,,2013-07-12 04:53:00,
2013-07-11 22:53:00,55.0,-99.9,29.96,NNW,330,7.0,-999.0,-999,-99.99,,,-99.99,,2013-07-12 05:53:00,
2013-07-11 23:52:00,55.0,-99.9,29.96,NW,310,9.0,-999.0,-999,-99.99,,,-99.99,,2013-07-12 06:52:00,